EXPRESS-AM7

Last updated on May 23, 2019, 3:05 a.m. UTC

1 40505U 15012A   19142.83058215  .00000143  00000-0  00000+0 0  9999
2 40505   0.0054 323.5447 0002718 101.2617 154.3825  1.00275296 15465
UTC
Height (km)
Latitude
Longitude
Inclination
Orbital Period
UTC large
Height (km)
Speed (km/s)
/
Latitude / Longitude
Inclination (degrees)
Orbital Period (minutes)
Azimuth
Elevation
Range (km)
Doppler Factor
iOS Compass Heading
iOS Angle

Next 30 passes for location: Hong Kong

Rise time Rise Azimuth (degrees) Set time Set Azimuth (degrees) Duration Max altitude (degrees)

No matching passes for this satellites